Location: Ikejouine
(32.5142°N, 5.4699°W)
Time: 16:49:50
(UTC+00:00)

Cosmos 1140 Rocket - Pass Details

Date: 09 April 2020
Orbit: 745 x 767 km, 74.1° (Epoch: 26 May)

Event Time Altitude Azimuth Distance (km) Brightness Sun altitude
Rises 19:59:53 0° 200° (SSW) 3,204 6.7 -15.5°
Reaches altitude 10° 20:02:15 10° 203° (SSW) 2,279 6.0 -16.0°
Maximum altitude 20:07:24 72° 287° (WNW) 795 3.7 -17.0°
Drops below altitude 10° 20:12:34 10° 12° (NNE) 2,277 6.1 -18.0°
Sets 20:14:56 0° 14° (NNE) 3,202 6.8 -18.4°
